Year,Month,Day,Hour,Minute,Value (Times are PST for temperature in C)
2009,07,30,00,00,24.80
2009,07,30,00,01,24.80
2009,07,30,00,02,24.80
2009,07,30,00,03,24.70
2009,07,30,00,04,24.60
2009,07,30,00,05,24.50
2009,07,30,00,06,24.50
2009,07,30,00,07,24.40
2009,07,30,00,08,24.40
2009,07,30,00,09,24.30
2009,07,30,00,10,24.30
2009,07,30,00,11,24.20
2009,07,30,00,12,24.10
2009,07,30,00,13,24.10
2009,07,30,00,14,24.00
2009,07,30,00,15,24.00
2009,07,30,00,16,23.90
2009,07,30,00,17,23.90
2009,07,30,00,18,23.80
2009,07,30,00,19,23.80
2009,07,30,00,20,23.80
2009,07,30,00,21,23.70
2009,07,30,00,22,23.70
2009,07,30,00,23,23.70
2009,07,30,00,24,23.60
2009,07,30,00,25,23.50
2009,07,30,00,26,23.50
2009,07,30,00,27,23.40
2009,07,30,00,28,23.40
2009,07,30,00,29,23.30
2009,07,30,00,30,23.30
2009,07,30,00,31,23.30
2009,07,30,00,32,23.20
2009,07,30,00,33,23.20
2009,07,30,00,34,23.20
2009,07,30,00,35,23.10
2009,07,30,00,36,23.10
2009,07,30,00,37,23.10
2009,07,30,00,38,23.00
2009,07,30,00,39,23.00
2009,07,30,00,40,23.00
2009,07,30,00,41,22.90
2009,07,30,00,42,22.90
2009,07,30,00,43,22.90
2009,07,30,00,44,22.90
2009,07,30,00,45,22.90
2009,07,30,00,46,22.90
2009,07,30,00,47,22.80
2009,07,30,00,48,22.80
2009,07,30,00,49,22.80
2009,07,30,00,50,22.80
2009,07,30,00,51,22.80
2009,07,30,00,52,22.80
2009,07,30,00,53,22.80
2009,07,30,00,54,22.80
2009,07,30,00,55,22.80
2009,07,30,00,56,22.80
2009,07,30,00,57,22.80
2009,07,30,00,58,22.80
2009,07,30,00,59,22.80
2009,07,30,01,00,22.80
2009,07,30,01,01,22.70
2009,07,30,01,02,22.70
2009,07,30,01,03,22.70
2009,07,30,01,04,22.70
2009,07,30,01,05,22.70
2009,07,30,01,06,22.70
2009,07,30,01,07,22.70
2009,07,30,01,08,22.60
2009,07,30,01,09,22.60
2009,07,30,01,10,22.60
2009,07,30,01,11,22.60
2009,07,30,01,12,22.60
2009,07,30,01,13,22.60
2009,07,30,01,14,22.60
2009,07,30,01,15,22.60
2009,07,30,01,16,22.50
2009,07,30,01,17,22.50
2009,07,30,01,18,22.50
2009,07,30,01,19,22.50
2009,07,30,01,20,22.50
2009,07,30,01,21,22.50
2009,07,30,01,22,22.50
2009,07,30,01,23,22.50
2009,07,30,01,24,22.40
2009,07,30,01,25,22.40
2009,07,30,01,26,22.40
2009,07,30,01,27,22.40
2009,07,30,01,28,22.40
2009,07,30,01,29,22.40
2009,07,30,01,30,22.40
2009,07,30,01,31,22.40
2009,07,30,01,32,22.40
2009,07,30,01,33,22.40
2009,07,30,01,34,22.40
2009,07,30,01,35,22.40
2009,07,30,01,36,22.40
2009,07,30,01,37,22.40
2009,07,30,01,38,22.40
2009,07,30,01,39,22.40
2009,07,30,01,40,22.40
2009,07,30,01,41,22.40
2009,07,30,01,42,22.40
2009,07,30,01,43,22.40
2009,07,30,01,44,22.40
2009,07,30,01,45,22.40
2009,07,30,01,46,22.40
2009,07,30,01,47,22.40
2009,07,30,01,48,22.50
2009,07,30,01,49,22.50
2009,07,30,01,50,22.50
2009,07,30,01,51,22.50
2009,07,30,01,52,22.50
2009,07,30,01,53,22.50
2009,07,30,01,54,22.60
2009,07,30,01,55,22.60
2009,07,30,01,56,22.70
2009,07,30,01,57,22.70
2009,07,30,01,58,22.70
2009,07,30,01,59,22.80
2009,07,30,02,00,22.80
2009,07,30,02,01,22.80
2009,07,30,02,02,22.80
2009,07,30,02,03,22.80
2009,07,30,02,04,22.90
2009,07,30,02,05,22.90
2009,07,30,02,06,22.90
2009,07,30,02,07,22.90
2009,07,30,02,08,22.90
2009,07,30,02,09,22.90
2009,07,30,02,10,22.90
2009,07,30,02,11,22.90
2009,07,30,02,12,22.90
2009,07,30,02,13,22.90
2009,07,30,02,14,22.90
2009,07,30,02,15,22.90
2009,07,30,02,16,22.80
2009,07,30,02,17,22.90
2009,07,30,02,18,22.90
2009,07,30,02,19,22.80
2009,07,30,02,20,22.80
2009,07,30,02,21,22.80
2009,07,30,02,22,22.80
2009,07,30,02,23,22.80
2009,07,30,02,24,22.80
2009,07,30,02,25,22.70
2009,07,30,02,26,22.70
2009,07,30,02,27,22.60
2009,07,30,02,28,22.60
2009,07,30,02,29,22.60
2009,07,30,02,30,22.50
2009,07,30,02,31,22.50
2009,07,30,02,32,22.40
2009,07,30,02,33,22.40
2009,07,30,02,34,22.40
2009,07,30,02,35,22.30
2009,07,30,02,36,22.30
2009,07,30,02,37,22.30
2009,07,30,02,38,22.20
2009,07,30,02,39,22.20
2009,07,30,02,40,22.20
2009,07,30,02,41,22.20
2009,07,30,02,42,22.20
2009,07,30,02,43,22.20
2009,07,30,02,44,22.10
2009,07,30,02,45,22.10
2009,07,30,02,46,22.10
2009,07,30,02,47,22.10
2009,07,30,02,48,22.00
2009,07,30,02,49,22.00
2009,07,30,02,50,21.90
2009,07,30,02,51,21.90
2009,07,30,02,52,21.90
2009,07,30,02,53,21.90
2009,07,30,02,54,21.80
2009,07,30,02,55,21.80
2009,07,30,02,56,21.80
2009,07,30,02,57,21.80
2009,07,30,02,58,21.80
2009,07,30,02,59,21.80
2009,07,30,03,00,21.80
2009,07,30,03,01,21.70
2009,07,30,03,02,21.70
2009,07,30,03,03,21.70
2009,07,30,03,04,21.70
2009,07,30,03,05,21.70
2009,07,30,03,06,21.70
2009,07,30,03,07,21.60
2009,07,30,03,08,21.60
2009,07,30,03,09,21.60
2009,07,30,03,10,21.60
2009,07,30,03,11,21.60
2009,07,30,03,12,21.50
2009,07,30,03,13,21.50
2009,07,30,03,14,21.50
2009,07,30,03,15,21.50
2009,07,30,03,16,21.40
2009,07,30,03,17,21.40
2009,07,30,03,18,21.40
2009,07,30,03,19,21.40
2009,07,30,03,20,21.40
2009,07,30,03,21,21.30
2009,07,30,03,22,21.30
2009,07,30,03,23,21.30
2009,07,30,03,24,21.30
2009,07,30,03,25,21.30
2009,07,30,03,26,21.30
2009,07,30,03,27,21.30
2009,07,30,03,28,21.20
2009,07,30,03,29,21.20
2009,07,30,03,30,21.20
2009,07,30,03,31,21.20
2009,07,30,03,32,21.20
2009,07,30,03,33,21.10
2009,07,30,03,34,21.10
2009,07,30,03,35,21.10
2009,07,30,03,36,21.10
2009,07,30,03,37,21.10
2009,07,30,03,38,21.10
2009,07,30,03,39,21.10
2009,07,30,03,40,21.00
2009,07,30,03,41,21.00
2009,07,30,03,42,21.00
2009,07,30,03,43,20.90
2009,07,30,03,44,20.90
2009,07,30,03,45,20.90
2009,07,30,03,46,20.90
2009,07,30,03,47,20.90
2009,07,30,03,48,20.80
2009,07,30,03,49,20.80
2009,07,30,03,50,20.80
2009,07,30,03,51,20.80
2009,07,30,03,52,20.80
2009,07,30,03,53,20.70
2009,07,30,03,54,20.70
2009,07,30,03,55,20.70
2009,07,30,03,56,20.70
2009,07,30,03,57,20.70
2009,07,30,03,58,20.60
2009,07,30,03,59,20.60
2009,07,30,04,00,20.60
2009,07,30,04,01,20.60
2009,07,30,04,02,20.60
2009,07,30,04,03,20.60
2009,07,30,04,04,20.50
2009,07,30,04,05,20.50
2009,07,30,04,06,20.50
2009,07,30,04,07,20.40
2009,07,30,04,08,20.40
2009,07,30,04,09,20.40
2009,07,30,04,10,20.40
2009,07,30,04,11,20.40
2009,07,30,04,12,20.40
2009,07,30,04,13,20.40
2009,07,30,04,14,20.40
2009,07,30,04,15,20.30
2009,07,30,04,16,20.30
2009,07,30,04,17,20.30
2009,07,30,04,18,20.20
2009,07,30,04,19,20.20
2009,07,30,04,20,20.20
2009,07,30,04,21,20.10
2009,07,30,04,22,20.10
2009,07,30,04,23,20.10
2009,07,30,04,24,20.00
2009,07,30,04,25,20.00
2009,07,30,04,26,20.00
2009,07,30,04,27,19.90
2009,07,30,04,28,19.90
2009,07,30,04,29,19.90
2009,07,30,04,30,19.90
2009,07,30,04,31,19.90
2009,07,30,04,32,19.80
2009,07,30,04,33,19.80
2009,07,30,04,34,19.80
2009,07,30,04,35,19.80
2009,07,30,04,36,19.80
2009,07,30,04,37,19.70
2009,07,30,04,38,19.70
2009,07,30,04,39,19.70
2009,07,30,04,40,19.70
2009,07,30,04,41,19.70
2009,07,30,04,42,19.70
2009,07,30,04,43,19.70
2009,07,30,04,44,19.70
2009,07,30,04,45,19.60
2009,07,30,04,46,19.60
2009,07,30,04,47,19.60
2009,07,30,04,48,19.60
2009,07,30,04,49,19.60
2009,07,30,04,50,19.60
2009,07,30,04,51,19.60
2009,07,30,04,52,19.60
2009,07,30,04,53,19.60
2009,07,30,04,54,19.60
2009,07,30,04,55,19.60
2009,07,30,04,56,19.60
2009,07,30,04,57,19.50
2009,07,30,04,58,19.50
2009,07,30,04,59,19.50
2009,07,30,05,00,19.50
2009,07,30,05,01,19.50
2009,07,30,05,02,19.40
2009,07,30,05,03,19.40
2009,07,30,05,04,19.40
2009,07,30,05,05,19.40
2009,07,30,05,06,19.40
2009,07,30,05,07,19.40
2009,07,30,05,08,19.40
2009,07,30,05,09,19.40
2009,07,30,05,10,19.40
2009,07,30,05,11,19.40
2009,07,30,05,12,19.40
2009,07,30,05,13,19.40
2009,07,30,05,14,19.40
2009,07,30,05,15,19.40
2009,07,30,05,16,19.40
2009,07,30,05,17,19.40
2009,07,30,05,18,19.40
2009,07,30,05,19,19.40
2009,07,30,05,20,19.40
2009,07,30,05,21,19.40
2009,07,30,05,22,19.40
2009,07,30,05,23,19.40
2009,07,30,05,24,19.40
2009,07,30,05,25,19.40
2009,07,30,05,26,19.40
2009,07,30,05,27,19.40
2009,07,30,05,28,19.30
2009,07,30,05,29,19.30
2009,07,30,05,30,19.30
2009,07,30,05,31,19.30
2009,07,30,05,32,19.30
2009,07,30,05,33,19.30
2009,07,30,05,34,19.30
2009,07,30,05,35,19.30
2009,07,30,05,36,19.30
2009,07,30,05,37,19.30
2009,07,30,05,38,19.30
2009,07,30,05,39,19.30
2009,07,30,05,40,19.30
2009,07,30,05,41,19.30
2009,07,30,05,42,19.30
2009,07,30,05,43,19.30
2009,07,30,05,44,19.30
2009,07,30,05,45,19.30
2009,07,30,05,46,19.30
2009,07,30,05,47,19.30
2009,07,30,05,48,19.40
2009,07,30,05,49,19.40
2009,07,30,05,50,19.40
2009,07,30,05,51,19.40
2009,07,30,05,52,19.40
2009,07,30,05,53,19.40
2009,07,30,05,54,19.40
2009,07,30,05,55,19.40
2009,07,30,05,56,19.50
2009,07,30,05,57,19.50
2009,07,30,05,58,19.60
2009,07,30,05,59,19.60
2009,07,30,06,00,19.60
2009,07,30,06,01,19.60
2009,07,30,06,02,19.60
2009,07,30,06,03,19.70
2009,07,30,06,04,19.70
2009,07,30,06,05,19.70
2009,07,30,06,06,19.70
2009,07,30,06,07,19.70
2009,07,30,06,08,19.70
2009,07,30,06,09,19.70
2009,07,30,06,10,19.80
2009,07,30,06,11,19.80
2009,07,30,06,12,19.80
2009,07,30,06,13,19.80
2009,07,30,06,14,19.80
2009,07,30,06,15,19.90
2009,07,30,06,16,19.90
2009,07,30,06,17,19.90
2009,07,30,06,18,19.90
2009,07,30,06,19,19.90
2009,07,30,06,20,19.90
2009,07,30,06,21,19.90
2009,07,30,06,22,19.90
2009,07,30,06,23,19.90
2009,07,30,06,24,19.90
2009,07,30,06,25,19.90
2009,07,30,06,26,19.90
2009,07,30,06,27,19.90
2009,07,30,06,28,20.00
2009,07,30,06,29,20.00
2009,07,30,06,30,20.00
2009,07,30,06,31,20.00
2009,07,30,06,32,20.00
2009,07,30,06,33,20.00
2009,07,30,06,34,20.00
2009,07,30,06,35,19.90
2009,07,30,06,36,19.90
2009,07,30,06,37,19.90
2009,07,30,06,38,19.90
2009,07,30,06,39,19.90
2009,07,30,06,40,19.90
2009,07,30,06,41,19.90
2009,07,30,06,42,20.00
2009,07,30,06,43,20.00
2009,07,30,06,44,20.00
2009,07,30,06,45,20.00
2009,07,30,06,46,20.00
2009,07,30,06,47,19.90
2009,07,30,06,48,19.90
2009,07,30,06,49,19.90
2009,07,30,06,50,19.90
2009,07,30,06,51,19.90
2009,07,30,06,52,19.90
2009,07,30,06,53,19.90
2009,07,30,06,54,19.90
2009,07,30,06,55,19.90
2009,07,30,06,56,19.90
2009,07,30,06,57,19.90
2009,07,30,06,58,20.00
2009,07,30,06,59,20.00
2009,07,30,07,00,20.00
2009,07,30,07,01,20.00
2009,07,30,07,02,20.00
2009,07,30,07,03,20.00
2009,07,30,07,04,20.00
2009,07,30,07,05,20.00
2009,07,30,07,06,20.00
2009,07,30,07,07,20.00
2009,07,30,07,08,20.10
2009,07,30,07,09,20.10
2009,07,30,07,10,20.10
2009,07,30,07,11,20.10
2009,07,30,07,12,20.20
2009,07,30,07,13,20.20
2009,07,30,07,14,20.20
2009,07,30,07,15,20.20
2009,07,30,07,16,20.20
2009,07,30,07,17,20.20
2009,07,30,07,18,20.30
2009,07,30,07,19,20.30
2009,07,30,07,20,20.30
2009,07,30,07,21,20.30
2009,07,30,07,22,20.30
2009,07,30,07,23,20.30
2009,07,30,07,24,20.30
2009,07,30,07,25,20.40
2009,07,30,07,26,20.40
2009,07,30,07,27,20.50
2009,07,30,07,28,20.50
2009,07,30,07,29,20.60
2009,07,30,07,30,20.60
2009,07,30,07,31,20.60
2009,07,30,07,32,20.70
2009,07,30,07,33,20.70
2009,07,30,07,34,20.80
2009,07,30,07,35,20.80
2009,07,30,07,36,20.80
2009,07,30,07,37,20.90
2009,07,30,07,38,20.90
2009,07,30,07,39,21.00
2009,07,30,07,40,21.00
2009,07,30,07,41,21.10
2009,07,30,07,42,21.10
2009,07,30,07,43,21.20
2009,07,30,07,44,21.20
2009,07,30,07,45,21.20
2009,07,30,07,46,21.30
2009,07,30,07,47,21.30
2009,07,30,07,48,21.30
2009,07,30,07,49,21.40
2009,07,30,07,50,21.40
2009,07,30,07,51,21.40
2009,07,30,07,52,21.50
2009,07,30,07,53,21.50
2009,07,30,07,54,21.60
2009,07,30,07,55,21.60
2009,07,30,07,56,21.60
2009,07,30,07,57,21.60
2009,07,30,07,58,21.70
2009,07,30,07,59,21.70
2009,07,30,08,00,21.70
2009,07,30,08,01,21.80
2009,07,30,08,02,21.80
2009,07,30,08,03,21.80
2009,07,30,08,04,21.80
2009,07,30,08,05,21.90
2009,07,30,08,06,21.90
2009,07,30,08,07,21.90
2009,07,30,08,08,22.00
2009,07,30,08,09,22.00
2009,07,30,08,10,22.10
2009,07,30,08,11,22.10
2009,07,30,08,12,22.10
2009,07,30,08,13,22.10
2009,07,30,08,14,22.20
2009,07,30,08,15,22.20
2009,07,30,08,16,22.20
2009,07,30,08,17,22.20
2009,07,30,08,18,22.20
2009,07,30,08,19,22.30
2009,07,30,08,20,22.30
2009,07,30,08,21,22.30
2009,07,30,08,22,22.30
2009,07,30,08,23,22.30
2009,07,30,08,24,22.40
2009,07,30,08,25,22.40
2009,07,30,08,26,22.40
2009,07,30,08,27,22.50
2009,07,30,08,28,22.50
2009,07,30,08,29,22.60
2009,07,30,08,30,22.60
2009,07,30,08,31,22.60
2009,07,30,08,32,22.70
2009,07,30,08,33,22.70
2009,07,30,08,34,22.80
2009,07,30,08,35,22.80
2009,07,30,08,36,22.90
2009,07,30,08,37,22.90
2009,07,30,08,38,23.00
2009,07,30,08,39,23.00
2009,07,30,08,40,23.10
2009,07,30,08,41,23.10
2009,07,30,08,42,23.20
2009,07,30,08,43,23.20
2009,07,30,08,44,23.20
2009,07,30,08,45,23.20
2009,07,30,08,46,23.30
2009,07,30,08,47,23.30
2009,07,30,08,48,23.30
2009,07,30,08,49,23.40
2009,07,30,08,50,23.40
2009,07,30,08,51,23.40
2009,07,30,08,52,23.40
2009,07,30,08,53,23.50
2009,07,30,08,54,23.50
2009,07,30,08,55,23.60
2009,07,30,08,56,23.60
2009,07,30,08,57,23.70
2009,07,30,08,58,23.70
2009,07,30,08,59,23.80
2009,07,30,09,00,23.80
2009,07,30,09,01,23.80
2009,07,30,09,02,23.80
2009,07,30,09,03,23.80
2009,07,30,09,04,23.90
2009,07,30,09,05,23.90
2009,07,30,09,06,24.00
2009,07,30,09,07,24.00
2009,07,30,09,08,24.10
2009,07,30,09,09,24.20
2009,07,30,09,10,24.30
2009,07,30,09,11,24.40
2009,07,30,09,12,24.50
2009,07,30,09,13,24.60
2009,07,30,09,14,24.60
2009,07,30,09,15,24.70
2009,07,30,09,16,24.80
2009,07,30,09,17,24.80
2009,07,30,09,18,24.80
2009,07,30,09,19,24.80
2009,07,30,09,20,24.80
2009,07,30,09,21,24.80
2009,07,30,09,22,24.80
2009,07,30,09,23,24.80
2009,07,30,09,24,24.90
2009,07,30,09,25,24.90
2009,07,30,09,26,25.00
2009,07,30,09,27,25.00
2009,07,30,09,28,25.10
2009,07,30,09,29,25.20
2009,07,30,09,30,25.30
2009,07,30,09,31,25.30
2009,07,30,09,32,25.40
2009,07,30,09,33,25.40
2009,07,30,09,34,25.40
2009,07,30,09,35,25.30
2009,07,30,09,36,25.30
2009,07,30,09,37,25.20
2009,07,30,09,38,25.10
2009,07,30,09,39,25.10
2009,07,30,09,40,24.90
2009,07,30,09,41,24.90
2009,07,30,09,42,24.80
2009,07,30,09,43,24.80
2009,07,30,09,44,24.80
2009,07,30,09,45,24.80
2009,07,30,09,46,24.80
2009,07,30,09,47,24.80
2009,07,30,09,48,24.90
2009,07,30,09,49,24.90
2009,07,30,09,50,25.00
2009,07,30,09,51,25.10
2009,07,30,09,52,25.20
2009,07,30,09,53,25.40
2009,07,30,09,54,25.50
2009,07,30,09,55,25.60
2009,07,30,09,56,25.80
2009,07,30,09,57,25.90
2009,07,30,09,58,25.90
2009,07,30,09,59,25.90
2009,07,30,10,00,26.00
2009,07,30,10,01,26.10
2009,07,30,10,02,26.20
2009,07,30,10,03,26.20
2009,07,30,10,04,26.30
2009,07,30,10,05,26.30
2009,07,30,10,06,26.30
2009,07,30,10,07,26.30
2009,07,30,10,08,26.30
2009,07,30,10,09,26.20
2009,07,30,10,10,26.20
2009,07,30,10,11,26.20
2009,07,30,10,12,26.10
2009,07,30,10,13,26.10
2009,07,30,10,14,26.10
2009,07,30,10,15,26.10
2009,07,30,10,16,26.10
2009,07,30,10,17,26.10
2009,07,30,10,18,26.10
2009,07,30,10,19,26.20
2009,07,30,10,20,26.30
2009,07,30,10,21,26.30
2009,07,30,10,22,26.30
2009,07,30,10,23,26.30
2009,07,30,10,24,26.40
2009,07,30,10,25,26.40
2009,07,30,10,26,26.40
2009,07,30,10,27,26.50
2009,07,30,10,28,26.50
2009,07,30,10,29,26.60
2009,07,30,10,30,26.50
2009,07,30,10,31,26.40
2009,07,30,10,32,26.40
2009,07,30,10,33,26.50
2009,07,30,10,34,26.50
2009,07,30,10,35,26.60
2009,07,30,10,36,26.70
2009,07,30,10,37,26.80
2009,07,30,10,38,26.80
2009,07,30,10,39,26.80
2009,07,30,10,40,26.70
2009,07,30,10,41,26.70
2009,07,30,10,42,26.70
2009,07,30,10,43,26.70
2009,07,30,10,44,26.50
2009,07,30,10,45,26.20
2009,07,30,10,46,26.10
2009,07,30,10,47,25.90
2009,07,30,10,48,25.90
2009,07,30,10,49,25.90
2009,07,30,10,50,25.80
2009,07,30,10,51,25.80
2009,07,30,10,52,25.80
2009,07,30,10,53,25.80
2009,07,30,10,54,25.80
2009,07,30,10,55,25.90
2009,07,30,10,56,25.90
2009,07,30,10,57,25.80
2009,07,30,10,58,25.80
2009,07,30,10,59,25.80
2009,07,30,11,00,25.80
2009,07,30,11,01,25.80
2009,07,30,11,02,25.80
2009,07,30,11,03,25.80
2009,07,30,11,04,25.90
2009,07,30,11,05,25.90
2009,07,30,11,06,25.90
2009,07,30,11,07,26.00
2009,07,30,11,08,26.20
2009,07,30,11,09,26.30
2009,07,30,11,10,26.30
2009,07,30,11,11,26.40
2009,07,30,11,12,26.50
2009,07,30,11,13,26.60
2009,07,30,11,14,26.70
2009,07,30,11,15,26.80
2009,07,30,11,16,26.70
2009,07,30,11,17,26.70
2009,07,30,11,18,26.70
2009,07,30,11,19,26.80
2009,07,30,11,20,26.90
2009,07,30,11,21,27.00
2009,07,30,11,22,27.00
2009,07,30,11,23,27.00
2009,07,30,11,24,27.10
2009,07,30,11,25,27.20
2009,07,30,11,26,27.20
2009,07,30,11,27,27.30
2009,07,30,11,28,27.40
2009,07,30,11,29,27.40
2009,07,30,11,30,27.50
2009,07,30,11,31,27.60
2009,07,30,11,32,27.60
2009,07,30,11,33,27.60
2009,07,30,11,34,27.60
2009,07,30,11,35,27.60
2009,07,30,11,36,27.60
2009,07,30,11,37,27.60
2009,07,30,11,38,27.50
2009,07,30,11,39,27.40
2009,07,30,11,40,27.30
2009,07,30,11,41,27.20
2009,07,30,11,42,27.10
2009,07,30,11,43,27.10
2009,07,30,11,44,27.10
2009,07,30,11,45,27.10
2009,07,30,11,46,27.10
2009,07,30,11,47,27.10
2009,07,30,11,48,27.20
2009,07,30,11,49,27.20
2009,07,30,11,50,27.30
2009,07,30,11,51,27.30
2009,07,30,11,52,27.40
2009,07,30,11,53,27.40
2009,07,30,11,54,27.40
2009,07,30,11,55,27.50
2009,07,30,11,56,27.50
2009,07,30,11,57,27.60
2009,07,30,11,58,27.70
2009,07,30,11,59,27.70
2009,07,30,12,00,27.80
2009,07,30,12,01,27.80
2009,07,30,12,02,27.80
2009,07,30,12,03,27.80
2009,07,30,12,04,27.80
2009,07,30,12,05,27.90
2009,07,30,12,06,28.00
2009,07,30,12,07,28.10
2009,07,30,12,08,28.20
2009,07,30,12,09,28.20
2009,07,30,12,10,28.20
2009,07,30,12,11,28.10
2009,07,30,12,12,28.00
2009,07,30,12,13,28.00
2009,07,30,12,14,28.10
2009,07,30,12,15,28.20
2009,07,30,12,16,28.40
2009,07,30,12,17,28.50
2009,07,30,12,18,28.70
2009,07,30,12,19,28.70
2009,07,30,12,20,28.60
2009,07,30,12,21,28.40
2009,07,30,12,22,28.30
2009,07,30,12,23,28.40
2009,07,30,12,24,28.40
2009,07,30,12,25,28.50
2009,07,30,12,26,28.60
2009,07,30,12,27,28.60
2009,07,30,12,28,28.50
2009,07,30,12,29,28.60
2009,07,30,12,30,28.70
2009,07,30,12,31,28.80
2009,07,30,12,32,28.90
2009,07,30,12,33,28.90
2009,07,30,12,34,28.90
2009,07,30,12,35,28.90
2009,07,30,12,36,29.00
2009,07,30,12,37,29.00
2009,07,30,12,38,29.20
2009,07,30,12,39,29.30
2009,07,30,12,40,29.50
2009,07,30,12,41,29.70
2009,07,30,12,42,29.80
2009,07,30,12,43,29.90
2009,07,30,12,44,30.00
2009,07,30,12,45,30.10
2009,07,30,12,46,30.20
2009,07,30,12,47,30.30
2009,07,30,12,48,30.40
2009,07,30,12,49,30.50
2009,07,30,12,50,30.60
2009,07,30,12,51,30.70
2009,07,30,12,52,30.70
2009,07,30,12,53,30.80
2009,07,30,12,54,30.80
2009,07,30,12,55,30.90
2009,07,30,12,56,30.90
2009,07,30,12,57,30.80
2009,07,30,12,58,30.90
2009,07,30,12,59,30.80
2009,07,30,13,00,30.80
2009,07,30,13,01,30.80
2009,07,30,13,02,30.80
2009,07,30,13,03,30.70
2009,07,30,13,04,30.70
2009,07,30,13,05,30.80
2009,07,30,13,06,30.80
2009,07,30,13,07,30.80
2009,07,30,13,08,30.80
2009,07,30,13,09,30.90
2009,07,30,13,10,31.00
2009,07,30,13,11,31.10
2009,07,30,13,12,31.20
2009,07,30,13,13,31.20
2009,07,30,13,14,31.20
2009,07,30,13,15,31.30
2009,07,30,13,16,31.30
2009,07,30,13,17,31.40
2009,07,30,13,18,31.40
2009,07,30,13,19,31.50
2009,07,30,13,20,31.60
2009,07,30,13,21,31.60
2009,07,30,13,22,31.70
2009,07,30,13,23,31.70
2009,07,30,13,24,31.80
2009,07,30,13,25,31.90
2009,07,30,13,26,32.00
2009,07,30,13,27,32.10
2009,07,30,13,28,32.20
2009,07,30,13,29,32.20
2009,07,30,13,30,32.20
2009,07,30,13,31,32.20
2009,07,30,13,32,32.20
2009,07,30,13,33,32.10
2009,07,30,13,34,32.00
2009,07,30,13,35,32.00
2009,07,30,13,36,31.90
2009,07,30,13,37,31.90
2009,07,30,13,38,31.90
2009,07,30,13,39,31.90
2009,07,30,13,40,31.90
2009,07,30,13,41,31.80
2009,07,30,13,42,31.80
2009,07,30,13,43,31.80
2009,07,30,13,44,31.80
2009,07,30,13,45,31.90
2009,07,30,13,46,31.90
2009,07,30,13,47,31.80
2009,07,30,13,48,31.80
2009,07,30,13,49,31.80
2009,07,30,13,50,31.80
2009,07,30,13,51,31.80
2009,07,30,13,52,31.80
2009,07,30,13,53,31.90
2009,07,30,13,54,32.10
2009,07,30,13,55,32.20
2009,07,30,13,56,32.30
2009,07,30,13,57,32.40
2009,07,30,13,58,32.40
2009,07,30,13,59,32.20
2009,07,30,14,00,32.20
2009,07,30,14,01,32.10
2009,07,30,14,02,32.00
2009,07,30,14,03,31.90
2009,07,30,14,04,31.90
2009,07,30,14,05,31.80
2009,07,30,14,06,31.70
2009,07,30,14,07,31.60
2009,07,30,14,08,31.50
2009,07,30,14,09,31.40
2009,07,30,14,10,31.40
2009,07,30,14,11,31.40
2009,07,30,14,12,31.40
2009,07,30,14,13,31.50
2009,07,30,14,14,31.50
2009,07,30,14,15,31.40
2009,07,30,14,16,31.30
2009,07,30,14,17,31.30
2009,07,30,14,18,31.30
2009,07,30,14,19,31.30
2009,07,30,14,20,31.30
2009,07,30,14,21,31.30
2009,07,30,14,22,31.30
2009,07,30,14,23,31.30
2009,07,30,14,24,31.20
2009,07,30,14,25,31.20
2009,07,30,14,26,31.10
2009,07,30,14,27,31.10
2009,07,30,14,28,31.10
2009,07,30,14,29,31.00
2009,07,30,14,30,31.00
2009,07,30,14,31,31.00
2009,07,30,14,32,31.00
2009,07,30,14,33,31.10
2009,07,30,14,34,31.20
2009,07,30,14,35,31.40
2009,07,30,14,36,31.50
2009,07,30,14,37,31.60
2009,07,30,14,38,31.70
2009,07,30,14,39,31.80
2009,07,30,14,40,31.80
2009,07,30,14,41,31.80
2009,07,30,14,42,31.70
2009,07,30,14,43,31.60
2009,07,30,14,44,31.50
2009,07,30,14,45,31.50
2009,07,30,14,46,31.40
2009,07,30,14,47,31.40
2009,07,30,14,48,31.50
2009,07,30,14,49,31.60
2009,07,30,14,50,31.70
2009,07,30,14,51,31.80
2009,07,30,14,52,31.90
2009,07,30,14,53,32.00
2009,07,30,14,54,32.10
2009,07,30,14,55,32.20
2009,07,30,14,56,32.20
2009,07,30,14,57,32.20
2009,07,30,14,58,32.20
2009,07,30,14,59,32.20
2009,07,30,15,00,32.20
2009,07,30,15,01,32.20
2009,07,30,15,02,32.10
2009,07,30,15,03,32.10
2009,07,30,15,04,32.10
2009,07,30,15,05,32.10
2009,07,30,15,06,32.20
2009,07,30,15,07,32.20
2009,07,30,15,08,32.10
2009,07,30,15,09,32.10
2009,07,30,15,10,32.10
2009,07,30,15,11,32.20
2009,07,30,15,12,32.30
2009,07,30,15,13,32.40
2009,07,30,15,14,32.50
2009,07,30,15,15,32.50
2009,07,30,15,16,32.60
2009,07,30,15,17,32.60
2009,07,30,15,18,32.60
2009,07,30,15,19,32.70
2009,07,30,15,20,32.80
2009,07,30,15,21,32.80
2009,07,30,15,22,32.80
2009,07,30,15,23,32.80
2009,07,30,15,24,32.90
2009,07,30,15,25,32.90
2009,07,30,15,26,32.90
2009,07,30,15,27,32.90
2009,07,30,15,28,32.90
2009,07,30,15,29,33.00
2009,07,30,15,30,33.10
2009,07,30,15,31,33.20
2009,07,30,15,32,33.10
2009,07,30,15,33,33.10
2009,07,30,15,34,33.00
2009,07,30,15,35,32.90
2009,07,30,15,36,32.80
2009,07,30,15,37,32.80
2009,07,30,15,38,32.80
2009,07,30,15,39,32.90
2009,07,30,15,40,33.00
2009,07,30,15,41,33.00
2009,07,30,15,42,33.00
2009,07,30,15,43,33.00
2009,07,30,15,44,33.00
2009,07,30,15,45,33.10
2009,07,30,15,46,33.10
2009,07,30,15,47,33.20
2009,07,30,15,48,33.30
2009,07,30,15,49,33.50
2009,07,30,15,50,33.60
2009,07,30,15,51,33.50
2009,07,30,15,52,33.30
2009,07,30,15,53,33.20
2009,07,30,15,54,33.10
2009,07,30,15,55,33.00
2009,07,30,15,56,32.90
2009,07,30,15,57,32.80
2009,07,30,15,58,32.90
2009,07,30,15,59,32.90
2009,07,30,16,00,32.80
2009,07,30,16,01,32.90
2009,07,30,16,02,32.90
2009,07,30,16,03,33.00
2009,07,30,16,04,32.90
2009,07,30,16,05,32.90
2009,07,30,16,06,32.80
2009,07,30,16,07,32.80
2009,07,30,16,08,32.80
2009,07,30,16,09,32.90
2009,07,30,16,10,32.90
2009,07,30,16,11,32.80
2009,07,30,16,12,32.80
2009,07,30,16,13,32.80
2009,07,30,16,14,32.80
2009,07,30,16,15,32.80
2009,07,30,16,16,32.70
2009,07,30,16,17,32.80
2009,07,30,16,18,32.80
2009,07,30,16,19,32.90
2009,07,30,16,20,32.90
2009,07,30,16,21,32.90
2009,07,30,16,22,32.90
2009,07,30,16,23,32.90
2009,07,30,16,24,32.90
2009,07,30,16,25,32.90
2009,07,30,16,26,33.00
2009,07,30,16,27,33.00
2009,07,30,16,28,33.10
2009,07,30,16,29,33.20
2009,07,30,16,30,33.20
2009,07,30,16,31,33.30
2009,07,30,16,32,33.30
2009,07,30,16,33,33.30
2009,07,30,16,34,33.30
2009,07,30,16,35,33.20
2009,07,30,16,36,33.20
2009,07,30,16,37,33.20
2009,07,30,16,38,33.30
2009,07,30,16,39,33.30
2009,07,30,16,40,33.40
2009,07,30,16,41,33.40
2009,07,30,16,42,33.50
2009,07,30,16,43,33.60
2009,07,30,16,44,33.70
2009,07,30,16,45,33.80
2009,07,30,16,46,33.80
2009,07,30,16,47,33.80
2009,07,30,16,48,33.80
2009,07,30,16,49,33.70
2009,07,30,16,50,33.80
2009,07,30,16,51,33.80
2009,07,30,16,52,33.80
2009,07,30,16,53,33.90
2009,07,30,16,54,33.90
2009,07,30,16,55,33.90
2009,07,30,16,56,33.80
2009,07,30,16,57,33.80
2009,07,30,16,58,33.80
2009,07,30,16,59,33.80
2009,07,30,17,00,33.80
2009,07,30,17,01,33.80
2009,07,30,17,02,33.80
2009,07,30,17,03,33.80
2009,07,30,17,04,33.80
2009,07,30,17,05,33.70
2009,07,30,17,06,33.70
2009,07,30,17,07,33.60
2009,07,30,17,08,33.60
2009,07,30,17,09,33.60
2009,07,30,17,10,33.60
2009,07,30,17,11,33.60
2009,07,30,17,12,33.60
2009,07,30,17,13,33.60
2009,07,30,17,14,33.60
2009,07,30,17,15,33.60
2009,07,30,17,16,33.60
2009,07,30,17,17,33.70
2009,07,30,17,18,33.70
2009,07,30,17,19,33.70